Wind_Speed
35 36 36 36 37 39 39 40 39 40 41 41 41 41 40 41 42 42 42 42 42 42 42 43 44 45 46 47 47 47 47 48 47 47 47 46 46 46 46 46 46 45 45 45
34 35 35 36 37 38 38 39 39 40 41 41 42 41 41 41 41 41 41 41 42 42 43 43 44 44 45 47 48 48 49 49 49 49 48 48 48 48 48 48 48 47 47 46
33 33 34 35 36 37 37 38 38 39 40 41 42 41 40 40 41 41 41 42 42 42 42 43 43 44 45 46 47 48 49 50 50 51 50 50 50 50 49 49 49 49 49 48
31 31 32 34 35 36 36 36 37 38 39 40 41 42 39 40 40 40 40 41 41 41 41 42 43 44 45 46 47 48 49 50 50 52 52 52 52 51 51 50 50 51 50 50
29 30 31 32 32 33 35 35 37 38 38 39 39 41 39 39 39 39 39 40 40 41 41 41 42 43 45 46 47 47 48 49 50 51 53 53 53 53 53 52 52 51 52 52
28 29 30 31 31 32 33 34 36 37 38 39 37 39 40 37 37 38 38 38 39 40 41 41 42 43 44 45 46 47 48 49 50 51 52 53 54 54 55 54 54 53 53 53
28 28 29 30 31 31 32 32 33 35 36 37 36 38 39 36 36 37 37 38 39 40 41 42 43 44 44 45 47 48 48 49 50 50 51 52 54 55 56 56 56 55 54 53
27 27 27 28 29 29 29 30 31 33 33 34 34 36 36 35 35 36 37 39 40 41 42 43 44 45 45 46 47 48 48 48 49 50 52 53 53 54 55 55 55 55 53 52
27 27 27 27 27 28 28 28 29 31 32 33 33 33 33 33 35 36 37 38 40 41 42 43 44 45 46 46 47 47 48 48 49 49 50 52 53 53 53 53 53 54 53 53
27 28 27 26 27 27 28 28 28 28 31 32 33 32 31 31 32 34 35 36 38 39 40 42 43 44 45 45 46 47 47 48 48 49 50 50 51 52 52 52 52 53 54 54
26 27 27 26 26 26 27 28 28 29 30 31 32 31 30 31 31 32 34 35 37 38 39 40 42 44 45 46 46 46 47 48 48 48 49 49 50 51 51 52 52 52 52 53
26 27 27 26 26 26 26 27 28 29 30 31 32 31 29 30 30 31 33 34 35 37 38 39 40 42 44 45 46 46 46 46 47 47 47 47 47 49 50 50 51 52 53 53
26 26 26 26 25 25 25 26 27 28 30 30 31 30 30 30 31 31 32 33 34 35 36 36 37 39 41 43 43 44 44 45 45 46 45 46 46 47 49 50 51 52 52 53
26 26 26 26 25 25 25 25 26 28 29 30 30 29 28 29 31 32 32 33 33 33 34 34 35 36 38 39 40 41 43 43 43 43 44 44 44 46 47 49 50 51 52 52
25 25 25 25 26 26 26 26 26 27 28 29 28 28 27 29 30 31 31 31 32 32 32 33 34 34 35 37 38 39 40 41 41 42 41 42 43 44 46 47 47 48 49 50
24 25 25 25 26 26 26 25 26 27 28 29 29 28 27 29 29 29 29 30 30 31 32 33 33 33 33 34 35 36 36 37 38 39 40 40 40 41 42 43 44 45 46 47
25 25 25 25 25 26 26 25 25 26 27 28 28 27 27 28 28 28 29 29 29 30 31 31 32 32 31 31 32 33 35 35 36 37 37 37 38 38 39 40 41 42 43 43
24 24 25 25 25 26 25 24 25 26 26 27 26 26 26 27 27 28 28 28 28 29 30 30 31 31 31 31 31 32 32 33 34 35 36 36 36 37 37 38 39 40 40 41
22 23 24 24 25 25 24 24 25 26 25 26 26 25 26 26 27 27 28 28 28 28 28 28 29 29 29 29 29 30 30 32 32 33 35 35 35 36 37 38 38 39 39 39
22 23 24 24 24 24 23 23 24 25 25 25 26 26 26 26 26 26 27 27 27 27 27 27 27 27 27 28 27 28 28 29 30 32 33 33 34 34 34 35 36 36 37 38
21 22 23 23 24 24 23 23 23 24 25 24 25 25 26 26 26 27 27 27 26 26 26 25 25 26 27 27 26 26 26 27 27 29 30 31 32 32 33 34 35 36 37 38
22 23 23 23 24 23 23 23 23 24 24 24 24 24 25 26 26 27 27 26 26 25 25 25 24 24 25 26 25 25 25 26 26 27 27 28 30 31 32 33 34 35 36 36
23 23 23 23 23 23 23 23 23 23 23 23 23 24 25 25 26 26 25 25 25 24 24 24 23 24 24 25 25 24 25 25 26 27 27 28 28 29 29 30 31 32 33 34
23 23 23 23 23 24 24 24 24 24 24 23 24 24 24 24 25 24 23 23 23 23 23 22 22 22 23 23 23 24 25 25 25 26 26 26 26 26 27 28 29 29 30 31
23 23 23 23 24 24 24 25 25 24 24 24 24 24 24 24 24 24 23 23 23 22 22 22 22 22 22 22 23 24 24 25 24 24 25 24 24 25 26 27 28 28 29 29
23 24 23 23 24 24 24 24 24 24 24 24 24 24 24 24 23 22 22 22 22 22 21 21 21 21 21 21 22 22 23 24 24 24 24 25 25 25 26 26 27 27 27 28
Wind_Direction
260 261 262 262 261 260 260 259 259 259 258 259 260 260 259 259 260 260 260 260 259 258 256 255 254 252 251 250 250 250 249 249 250 251 251 251 251 252 252 252 252 252 253 254
262 262 263 262 261 261 261 260 260 259 259 260 260 260 260 260 261 261 260 260 259 259 257 256 254 253 252 251 251 251 250 250 250 251 252 252 252 252 252 252 252 252 252 253
266 264 262 262 262 262 261 262 261 261 260 260 261 260 260 260 261 261 261 260 259 259 259 257 255 254 252 252 252 252 252 251 252 252 252 252 252 253 253 252 253 253 253 253
266 265 264 263 263 263 263 263 262 262 261 262 262 263 260 260 261 261 261 260 259 260 260 259 257 255 253 252 252 253 254 254 254 253 252 252 252 252 252 253 253 253 254 254
268 267 266 265 265 264 264 264 263 263 263 263 263 264 261 261 261 261 262 261 260 260 260 259 257 256 254 253 253 253 254 255 255 254 253 252 252 252 252 253 254 254 254 254
269 268 267 267 266 265 265 265 265 265 265 265 264 265 264 263 263 261 260 261 260 260 260 260 259 257 256 255 255 255 255 255 256 256 255 254 253 252 252 253 253 253 253 254
269 269 268 267 266 265 266 267 268 268 268 268 268 267 268 266 263 261 260 261 261 261 261 261 259 258 257 257 257 258 258 257 256 256 256 255 254 253 253 252 252 253 253 253
270 270 269 269 267 267 267 268 270 272 273 272 271 271 271 268 266 264 262 262 261 261 260 261 260 259 258 258 258 258 258 258 258 257 255 254 254 254 254 253 253 252 252 253
270 269 269 269 268 268 268 269 271 272 273 274 273 274 272 269 268 267 266 265 264 263 262 262 262 260 259 259 259 259 259 258 258 258 257 255 254 254 253 253 252 252 252 252
270 269 268 267 268 267 269 270 271 272 274 276 276 277 275 272 272 271 270 268 267 266 264 264 264 262 260 259 259 259 259 258 257 257 257 256 255 254 253 252 252 251 252 252
270 270 269 267 268 269 268 269 270 272 274 277 280 281 279 276 275 274 273 272 270 270 268 267 266 263 260 260 260 260 259 259 258 258 258 257 256 255 254 253 252 251 251 252
270 270 270 269 269 269 270 271 272 273 275 278 281 283 282 281 279 278 277 276 274 272 271 268 266 264 262 261 260 260 259 259 258 258 258 258 257 255 254 253 252 251 251 251
269 269 270 270 269 270 271 271 272 274 276 279 281 283 284 284 283 281 280 279 277 275 272 269 268 265 263 261 260 259 259 259 258 258 259 259 259 257 254 253 253 252 252 252
268 268 269 271 273 274 273 272 272 275 277 280 282 284 285 284 283 282 281 280 279 276 274 271 269 267 264 262 261 259 258 259 259 258 259 259 259 257 255 253 253 253 253 253
267 268 268 269 271 273 274 274 274 276 279 282 284 284 285 283 283 283 281 280 279 278 275 273 271 270 267 264 262 260 260 259 259 258 259 259 260 258 256 254 253 253 254 254
268 270 271 270 272 274 275 276 277 278 279 282 283 284 284 283 283 283 282 282 282 279 276 275 273 271 269 267 263 261 260 260 259 259 260 261 261 259 256 254 253 253 253 253
270 272 274 274 274 274 276 278 278 279 281 283 284 285 282 282 282 284 284 285 286 283 279 277 276 274 272 270 267 263 261 261 262 261 262 263 262 260 258 256 253 253 254 255
270 273 276 276 276 276 279 278 279 280 282 283 284 284 282 282 283 285 287 288 288 285 282 279 277 274 273 271 269 267 266 265 264 263 263 264 263 260 258 257 254 254 255 256
269 272 275 277 277 279 280 280 281 281 282 283 283 284 284 283 283 286 288 289 289 287 283 281 277 275 273 272 271 270 269 268 266 265 265 264 263 261 259 257 255 255 256 256
270 272 275 278 280 283 284 283 283 283 284 285 285 284 284 284 285 286 286 288 287 285 283 281 279 276 274 272 272 272 271 269 268 267 266 264 263 261 261 258 256 257 257 257
270 272 273 277 280 284 286 285 284 285 289 288 287 287 287 287 289 289 288 288 288 286 283 281 279 277 274 273 273 273 272 271 271 270 268 265 263 263 262 261 258 256 257 257
272 273 274 276 278 282 285 284 285 287 288 289 289 289 289 290 291 291 291 290 289 288 285 283 280 279 276 275 276 274 273 272 272 272 270 267 265 264 263 261 260 260 260 260
272 273 274 276 279 280 282 283 284 286 287 288 289 290 291 291 292 292 291 291 290 289 287 284 283 282 280 278 275 274 274 275 274 274 273 270 268 266 265 263 263 263 262 262
273 273 275 276 277 279 281 282 284 286 286 288 289 291 292 292 291 291 290 289 289 290 288 286 285 283 282 279 275 275 276 276 275 275 274 270 269 267 265 265 264 264 263 262
272 273 274 275 276 278 281 282 282 283 283 285 287 289 292 293 293 292 290 291 290 289 288 288 287 284 283 281 278 278 277 276 275 276 275 272 269 267 268 267 267 265 264 264
269 270 272 273 275 279 280 281 281 281 281 284 287 289 291 293 293 292 291 291 291 289 287 287 286 285 283 282 281 279 277 276 276 277 275 273 269 268 269 268 265 264 265 265
Height
5671 5673 5673 5674 5674 5675 5676 5677 5678 5679 5679 5680 5681 5684 5686 5685 5686 5688 5689 5691 5692 5694 5695 5696 5699 5701 5703 5706 5709 5711 5714 5717 5719 5721 5724 5726 5729 5731 5733 5735 5737 5739 5741 5743
5663 5664 5665 5664 5665 5665 5666 5667 5668 5669 5669 5669 5671 5673 5675 5675 5676 5677 5679 5680 5682 5683 5684 5686 5688 5690 5692 5694 5697 5700 5702 5705 5707 5710 5712 5714 5717 5719 5722 5724 5726 5728 5730 5732
5654 5656 5655 5655 5656 5656 5657 5658 5659 5659 5659 5659 5660 5663 5665 5666 5666 5667 5668 5670 5671 5672 5673 5675 5676 5678 5680 5683 5685 5688 5690 5692 5695 5697 5699 5702 5704 5707 5710 5712 5714 5717 5719 5721
5646 5647 5647 5647 5647 5648 5648 5649 5649 5649 5649 5649 5651 5651 5656 5655 5656 5657 5659 5659 5660 5662 5663 5664 5666 5668 5670 5672 5674 5676 5678 5680 5682 5684 5687 5689 5692 5694 5697 5699 5702 5705 5707 5710
5638 5639 5639 5639 5640 5639 5639 5640 5640 5639 5639 5640 5641 5640 5645 5646 5647 5648 5649 5649 5650 5651 5652 5653 5655 5656 5658 5660 5662 5664 5666 5668 5669 5671 5673 5676 5678 5681 5684 5686 5689 5692 5695 5697
5631 5631 5631 5631 5631 5631 5631 5631 5630 5630 5630 5630 5632 5631 5633 5637 5638 5638 5639 5639 5640 5641 5642 5643 5644 5645 5647 5649 5650 5652 5654 5655 5657 5658 5660 5663 5665 5668 5671 5673 5676 5679 5682 5685
5624 5624 5623 5623 5623 5623 5623 5623 5622 5621 5621 5622 5623 5621 5624 5627 5628 5628 5629 5630 5630 5630 5631 5632 5633 5634 5636 5637 5638 5640 5641 5642 5644 5645 5647 5649 5652 5654 5657 5660 5663 5666 5669 5672
5616 5617 5617 5616 5616 5616 5616 5616 5616 5614 5613 5614 5614 5613 5617 5618 5618 5618 5619 5619 5620 5620 5620 5621 5622 5622 5624 5625 5626 5627 5628 5629 5630 5632 5633 5635 5637 5639 5643 5646 5649 5652 5656 5659
5609 5610 5610 5609 5609 5609 5608 5608 5608 5607 5605 5605 5605 5606 5608 5608 5608 5608 5608 5608 5609 5609 5609 5609 5610 5610 5611 5612 5614 5614 5615 5616 5617 5618 5619 5621 5623 5626 5629 5632 5635 5639 5643 5646
5601 5602 5603 5602 5602 5602 5602 5601 5601 5599 5597 5597 5597 5598 5600 5599 5599 5599 5598 5598 5597 5597 5597 5597 5598 5598 5599 5599 5600 5601 5602 5603 5604 5604 5606 5607 5610 5612 5615 5618 5621 5625 5630 5633
5595 5595 5595 5595 5595 5595 5595 5595 5593 5592 5591 5590 5589 5593 5591 5590 5590 5589 5588 5587 5586 5586 5586 5586 5586 5586 5586 5587 5587 5588 5589 5590 5590 5592 5593 5595 5597 5599 5601 5605 5608 5612 5616 5620
5588 5588 5588 5589 5588 5587 5587 5587 5587 5586 5585 5583 5581 5586 5583 5582 5580 5579 5578 5577 5576 5575 5575 5574 5574 5574 5574 5574 5575 5575 5576 5577 5578 5579 5580 5582 5583 5585 5588 5592 5595 5599 5603 5606
5581 5581 5581 5581 5583 5582 5581 5580 5580 5579 5578 5576 5574 5578 5575 5573 5571 5570 5568 5567 5566 5565 5564 5563 5562 5562 5562 5562 5563 5563 5564 5565 5565 5567 5568 5570 5571 5572 5575 5579 5582 5585 5589 5593
5574 5574 5575 5575 5574 5574 5574 5574 5572 5571 5570 5569 5569 5569 5568 5565 5563 5561 5560 5558 5556 5555 5553 5552 5552 5551 5551 5551 5551 5551 5552 5553 5554 5555 5556 5558 5559 5560 5562 5565 5569 5572 5576 5580
5566 5567 5567 5567 5567 5566 5566 5566 5565 5564 5563 5562 5562 5560 5560 5557 5554 5553 5551 5549 5547 5546 5544 5543 5542 5541 5540 5540 5540 5540 5540 5541 5542 5544 5545 5546 5547 5548 5550 5553 5556 5559 5563 5567
5560 5560 5560 5560 5560 5559 5558 5558 5557 5557 5556 5554 5553 5553 5552 5549 5546 5545 5543 5541 5539 5537 5535 5534 5533 5531 5530 5530 5529 5530 5530 5531 5531 5532 5534 5535 5535 5536 5538 5540 5544 5547 5550 5554
5553 5553 5553 5553 5553 5551 5552 5552 5551 5550 5549 5547 5546 5547 5543 5541 5539 5537 5535 5533 5531 5528 5526 5525 5524 5523 5522 5521 5520 5520 5521 5521 5522 5522 5523 5524 5524 5526 5527 5529 5532 5536 5539 5542
5547 5546 5546 5546 5546 5545 5549 5546 5544 5543 5542 5540 5539 5538 5536 5534 5532 5530 5528 5525 5523 5520 5518 5516 5515 5514 5513 5512 5512 5512 5512 5512 5512 5512 5513 5514 5514 5516 5517 5519 5522 5525 5528 5532
5541 5540 5540 5539 5538 5539 5541 5539 5537 5536 5536 5534 5532 5530 5528 5526 5525 5523 5520 5517 5515 5512 5509 5508 5506 5506 5505 5504 5504 5504 5503 5503 5503 5503 5504 5504 5505 5506 5508 5510 5513 5516 5519 5522
5535 5534 5534 5533 5531 5532 5535 5533 5530 5530 5529 5527 5525 5523 5521 5519 5518 5517 5513 5510 5507 5505 5502 5500 5499 5498 5498 5497 5496 5496 5496 5495 5495 5495 5495 5495 5496 5497 5499 5501 5503 5506 5509 5512
5529 5528 5528 5527 5525 5526 5527 5525 5524 5524 5524 5521 5518 5516 5514 5512 5511 5509 5506 5503 5501 5498 5495 5494 5492 5491 5491 5490 5490 5489 5489 5488 5488 5487 5487 5488 5488 5489 5491 5492 5494 5497 5500 5502
5523 5522 5522 5521 5520 5523 5521 5519 5518 5517 5515 5513 5511 5510 5508 5506 5503 5501 5499 5496 5494 5492 5490 5488 5486 5485 5484 5483 5483 5483 5482 5482 5482 5481 5481 5481 5481 5482 5483 5484 5486 5488 5490 5492
5517 5517 5516 5516 5518 5516 5514 5512 5512 5510 5509 5507 5505 5503 5501 5499 5497 5495 5493 5491 5488 5486 5484 5482 5480 5479 5478 5477 5477 5476 5476 5476 5475 5475 5474 5474 5474 5474 5475 5476 5477 5479 5480 5482
5511 5510 5510 5510 5510 5509 5507 5506 5505 5504 5502 5500 5499 5497 5495 5493 5491 5489 5487 5485 5483 5481 5478 5476 5475 5473 5472 5471 5470 5470 5469 5469 5469 5468 5467 5467 5467 5467 5468 5469 5470 5471 5471 5473
5504 5503 5503 5503 5503 5502 5501 5500 5499 5497 5495 5494 5492 5491 5489 5487 5484 5482 5481 5479 5477 5475 5473 5471 5469 5468 5467 5466 5465 5464 5463 5463 5462 5462 5461 5460 5460 5461 5461 5462 5462 5463 5463 5464
5498 5497 5497 5497 5496 5495 5495 5493 5492 5490 5489 5488 5486 5484 5482 5480 5478 5476 5475 5473 5471 5469 5467 5466 5464 5463 5461 5460 5459 5458 5457 5456 5456 5455 5455 5454 5454 5453 5453 5454 5454 5454 5455 5456